Location: Platte
(43.3870°N, 98.8440°W)
Time: 13:36:07
(UTC-05:00)

IGS 5A - Pass Details

Date: 21 May 2018
Orbit: 585 x 588 km, 97.7° (Epoch: 03 October)

Event Time Altitude Azimuth Distance (km) Brightness Sun altitude
Exits shadow 23:32:04 53° 184° (S) 721 3.5 -20.5°
Maximum altitude 23:32:58 78° 258° (WSW) 604 3.4 -20.6°
Drops below altitude 10° 23:37:08 10° 345° (NNW) 1,919 7.2 -21.0°
Sets 23:39:18 0° 347° (NNW) 2,824 8.3 -21.2°
